UAL824 PGSN-RJAA

Flight info

Callsign UAL824
Flight time 3h 11m
Altitude 37000
Route GUYES DCT TERYY G205 TEGOD/N0467F360 A337 SAGOP/N0461F380 A337 DAGDA/N0453F390 Y819 OLVEK/N0459F380 Y817 MENIX Y813 LUBLA
Aircraft B38M/M-SDE1FGHILORVWXY/HB1

Departure

Time 2026-05-05 09:19
Airport Saipan International Airport (PGSN)

Arrival

Time 2026-05-05 12:30
Airport Narita International Airport (RJAA)
Time Latitude Longitude Altitude Speed Heading
2026-05-05 08:55 15.12106 145.72413 214 ft 0 kts 337°
2026-05-05 09:08 15.12094 145.72418 200 ft 4 kts 334°
2026-05-05 09:08 15.12071 145.72432 214 ft 4 kts 323°
2026-05-05 09:08 15.12051 145.72451 214 ft 4 kts 311°
2026-05-05 09:08 15.12043 145.72461 214 ft 1 kts 308°
2026-05-05 09:09 15.12042 145.72462 214 ft 0 kts 308°
2026-05-05 09:14 15.12044 145.72458 214 ft 1 kts 301°
2026-05-05 09:14 15.12044 145.72448 221 ft 2 kts 248°
2026-05-05 09:15 15.12029 145.72413 214 ft 9 kts 246°
2026-05-05 09:15 15.11994 145.72331 216 ft 15 kts 248°
2026-05-05 09:15 15.11951 145.72221 218 ft 18 kts 248°
2026-05-05 09:15 15.11903 145.72113 221 ft 13 kts 231°
2026-05-05 09:16 15.11821 145.72063 220 ft 15 kts 205°
2026-05-05 09:16 15.11752 145.71986 214 ft 16 kts 247°
2026-05-05 09:16 15.11708 145.71874 218 ft 18 kts 249°
2026-05-05 09:16 15.11659 145.71760 215 ft 12 kts 238°
2026-05-05 09:17 15.11580 145.71750 213 ft 13 kts 159°
2026-05-05 09:17 15.11496 145.71783 212 ft 14 kts 158°
2026-05-05 09:17 15.11461 145.71833 212 ft 8 kts 90°
2026-05-05 09:17 15.11486 145.71877 213 ft 8 kts 68°
2026-05-05 09:18 15.11488 145.71883 213 ft 0 kts 69°
2026-05-05 09:18 15.11493 145.71897 213 ft 10 kts 69°
2026-05-05 09:18 15.11627 145.72234 215 ft 90 kts 66°
2026-05-05 09:18 15.11955 145.73070 237 ft 155 kts 67°
2026-05-05 09:19 15.12405 145.74141 899 ft 166 kts 69°
2026-05-05 09:19 15.12865 145.75277 1784 ft 173 kts 69°
2026-05-05 09:19 15.13582 145.76307 2448 ft 192 kts 45°
2026-05-05 09:19 15.14881 145.77006 2699 ft 236 kts 20°
2026-05-05 09:20 15.16547 145.77048 3692 ft 243 kts 354°
2026-05-05 09:20 15.18151 145.76282 4371 ft 272 kts 322°
2026-05-05 09:20 15.19224 145.74587 5041 ft 296 kts 287°
2026-05-05 09:20 15.19289 145.72465 5990 ft 295 kts 259°
2026-05-05 09:21 15.19031 145.70335 6809 ft 304 kts 267°
2026-05-05 09:21 15.18921 145.68144 7746 ft 304 kts 266°
2026-05-05 09:21 15.18795 145.65948 8707 ft 305 kts 266°
2026-05-05 09:21 15.18655 145.63724 9497 ft 313 kts 266°
2026-05-05 09:22 15.18921 145.61539 10319 ft 314 kts 292°
2026-05-05 09:22 15.20140 145.59643 10736 ft 325 kts 322°
2026-05-05 09:22 15.22149 145.58523 11109 ft 334 kts 350°
2026-05-05 09:22 15.24495 145.58217 11453 ft 348 kts 353°
2026-05-05 09:23 15.26918 145.57685 11846 ft 363 kts 350°
2026-05-05 09:23 15.29417 145.57084 12398 ft 370 kts 348°
2026-05-05 09:23 15.31922 145.56485 13153 ft 372 kts 349°
2026-05-05 09:23 15.34469 145.55877 13682 ft 379 kts 348°
2026-05-05 09:24 15.37013 145.55263 14256 ft 382 kts 350°
2026-05-05 09:24 15.39610 145.54631 14881 ft 382 kts 351°
2026-05-05 09:24 15.42209 145.54012 15455 ft 385 kts 349°
2026-05-05 09:24 15.44832 145.53382 16011 ft 386 kts 350°
2026-05-05 09:25 15.47464 145.52749 16521 ft 389 kts 348°
2026-05-05 09:25 15.50105 145.52115 17078 ft 390 kts 348°
2026-05-05 09:25 15.52729 145.51482 17584 ft 392 kts 349°
2026-05-05 09:25 15.55383 145.50846 18105 ft 393 kts 348°
2026-05-05 09:26 15.58064 145.50201 18526 ft 396 kts 349°
2026-05-05 09:26 15.60757 145.49554 18921 ft 398 kts 349°
2026-05-05 09:26 15.63468 145.48903 19296 ft 401 kts 349°
2026-05-05 09:26 15.66169 145.48251 19668 ft 403 kts 349°
2026-05-05 09:27 15.68911 145.47590 20040 ft 406 kts 349°
2026-05-05 09:27 15.71675 145.46925 20408 ft 408 kts 349°
2026-05-05 09:27 15.74458 145.46255 20776 ft 411 kts 348°
2026-05-05 09:27 15.77255 145.45581 21144 ft 414 kts 348°
2026-05-05 09:28 15.80061 145.44905 21507 ft 416 kts 348°
2026-05-05 09:28 15.82863 145.44229 21866 ft 419 kts 348°
2026-05-05 09:28 15.85706 145.43543 22237 ft 421 kts 348°
2026-05-05 09:28 15.88574 145.42853 22571 ft 424 kts 348°
2026-05-05 09:29 15.91465 145.42154 22964 ft 426 kts 348°
2026-05-05 09:29 15.94365 145.41457 23298 ft 430 kts 348°
2026-05-05 09:29 15.97296 145.40748 23583 ft 434 kts 348°
2026-05-05 09:29 16.00242 145.40033 23940 ft 435 kts 347°
2026-05-05 09:30 16.03197 145.39321 24287 ft 436 kts 347°
2026-05-05 09:30 16.06153 145.38609 24588 ft 438 kts 347°
2026-05-05 09:30 16.09089 145.37898 24936 ft 439 kts 347°
2026-05-05 09:30 16.12079 145.37177 25253 ft 441 kts 346°
2026-05-05 09:31 16.15071 145.36453 25563 ft 442 kts 346°
2026-05-05 09:31 16.18089 145.35723 25876 ft 444 kts 346°
2026-05-05 09:31 16.21100 145.34996 26190 ft 446 kts 346°
2026-05-05 09:31 16.24131 145.34263 26491 ft 447 kts 345°
2026-05-05 09:32 16.27174 145.33526 26807 ft 449 kts 345°
2026-05-05 09:32 16.30176 145.32801 27094 ft 450 kts 345°
2026-05-05 09:32 16.33242 145.32060 27387 ft 452 kts 344°
2026-05-05 09:32 16.36315 145.31314 27694 ft 453 kts 344°
2026-05-05 09:33 16.39405 145.30566 27957 ft 456 kts 345°
2026-05-05 09:33 16.42468 145.29823 28213 ft 458 kts 345°
2026-05-05 09:33 16.45577 145.29071 28526 ft 458 kts 343°
2026-05-05 09:33 16.48691 145.28316 28815 ft 460 kts 345°
2026-05-05 09:34 16.51819 145.27558 29051 ft 462 kts 344°
2026-05-05 09:34 16.54944 145.26802 29374 ft 462 kts 344°
2026-05-05 09:34 16.58085 145.26042 29580 ft 465 kts 344°
2026-05-05 09:34 16.61249 145.25270 29828 ft 466 kts 345°
2026-05-05 09:35 16.64424 145.24501 30038 ft 469 kts 344°
2026-05-05 09:35 16.70768 145.22961 30422 ft 473 kts 344°
2026-05-05 09:35 16.73995 145.22178 30623 ft 474 kts 344°
2026-05-05 09:36 16.77208 145.21397 30809 ft 476 kts 344°
2026-05-05 09:36 16.80450 145.20608 31012 ft 478 kts 344°
2026-05-05 09:36 16.83649 145.19831 31212 ft 479 kts 344°
2026-05-05 09:36 16.86903 145.19041 31472 ft 479 kts 343°
2026-05-05 09:37 16.90160 145.18250 31736 ft 479 kts 343°
2026-05-05 09:37 16.93405 145.17462 32002 ft 479 kts 344°
2026-05-05 09:37 16.96660 145.16670 32280 ft 478 kts 344°
2026-05-05 09:37 16.99865 145.15891 32544 ft 478 kts 344°
2026-05-05 09:38 17.03096 145.15105 32815 ft 478 kts 343°
2026-05-05 09:38 17.06333 145.14317 33112 ft 477 kts 344°
2026-05-05 09:38 17.09573 145.13528 33398 ft 477 kts 343°
2026-05-05 09:38 17.12805 145.12741 33695 ft 476 kts 343°
2026-05-05 09:39 17.16030 145.11954 33974 ft 476 kts 343°
2026-05-05 09:39 17.19260 145.11166 34219 ft 475 kts 343°
2026-05-05 09:39 17.22479 145.10381 34484 ft 474 kts 343°
2026-05-05 09:39 17.25645 145.09609 34776 ft 472 kts 343°
2026-05-05 09:40 17.28830 145.08831 35027 ft 471 kts 343°
2026-05-05 09:40 17.32024 145.08051 35296 ft 470 kts 343°
2026-05-05 09:40 17.35201 145.07274 35586 ft 468 kts 343°
2026-05-05 09:40 17.38373 145.06498 35852 ft 467 kts 343°
2026-05-05 09:41 17.41539 145.05723 36108 ft 466 kts 343°
2026-05-05 09:41 17.44652 145.04962 36347 ft 465 kts 343°
2026-05-05 09:41 17.47802 145.04190 36592 ft 464 kts 343°
2026-05-05 09:41 17.50936 145.03422 36823 ft 463 kts 343°
2026-05-05 09:42 17.54073 145.02653 37009 ft 463 kts 343°
2026-05-05 09:42 17.57216 145.01882 37016 ft 462 kts 343°
2026-05-05 09:42 17.63441 145.00354 37012 ft 458 kts 344°
2026-05-05 09:43 17.69664 144.98829 37011 ft 459 kts 345°
2026-05-05 09:43 17.72851 144.98496 36992 ft 463 kts 360°
2026-05-05 09:43 17.76027 144.98686 37021 ft 465 kts 360°
2026-05-05 09:44 17.82503 144.99033 37021 ft 466 kts
2026-05-05 09:44 17.88978 144.99438 37018 ft 465 kts
2026-05-05 09:45 17.95401 144.99847 37016 ft 464 kts
2026-05-05 09:45 18.01855 145.00261 37015 ft 464 kts
2026-05-05 09:46 18.07229 145.00603 37018 ft 464 kts
2026-05-05 09:46 18.14732 145.01084 37025 ft 464 kts
2026-05-05 09:47 18.20099 145.01428 37020 ft 463 kts
2026-05-05 09:47 18.26519 145.01838 37022 ft 463 kts
2026-05-05 09:48 18.32958 145.02252 37023 ft 463 kts
2026-05-05 09:48 18.39405 145.02666 37025 ft 463 kts
2026-05-05 09:49 18.45805 145.03076 37022 ft 463 kts
2026-05-05 09:49 18.52232 145.03489 37026 ft 463 kts
2026-05-05 09:50 18.58680 145.03905 37025 ft 463 kts
2026-05-05 09:50 18.65072 145.04315 37026 ft 463 kts
2026-05-05 09:51 18.71521 145.04731 37031 ft 463 kts
2026-05-05 09:51 18.77929 145.05145 37023 ft 459 kts
2026-05-05 09:52 18.84268 145.05553 37031 ft 459 kts
2026-05-05 09:52 18.90660 145.05966 37026 ft 460 kts
2026-05-05 09:53 18.97061 145.06380 37031 ft 460 kts
2026-05-05 09:53 19.03390 145.06790 37036 ft 458 kts
2026-05-05 09:54 19.09773 145.07201 37039 ft 459 kts
2026-05-05 09:54 19.16163 145.07617 37038 ft 459 kts
2026-05-05 09:55 19.22499 145.08027 37041 ft 457 kts
2026-05-05 09:55 19.28858 145.08439 37048 ft 459 kts
2026-05-05 09:56 19.35244 145.08855 37048 ft 457 kts
2026-05-05 09:56 19.41556 145.09265 37046 ft 456 kts
2026-05-05 09:57 19.47912 145.09678 37052 ft 457 kts
2026-05-05 09:57 19.54271 145.10092 37056 ft 458 kts
2026-05-05 09:58 19.60598 145.10504 37054 ft 456 kts
2026-05-05 09:58 19.66933 145.10916 37047 ft 456 kts
2026-05-05 09:59 19.73249 145.11328 37055 ft 457 kts
2026-05-05 09:59 19.79583 145.11742 37052 ft 456 kts
2026-05-05 10:00 19.85925 145.12156 37058 ft 455 kts
2026-05-05 10:00 19.92222 145.12568 37062 ft 457 kts
2026-05-05 10:01 19.98594 145.12985 37066 ft 457 kts
2026-05-05 10:01 20.04935 145.13400 37063 ft 456 kts
2026-05-05 10:02 20.11288 145.13817 37064 ft 457 kts
2026-05-05 10:02 20.17607 145.14231 37064 ft 457 kts
2026-05-05 10:03 20.23944 145.14647 37066 ft 456 kts
2026-05-05 10:03 20.30264 145.15062 37068 ft 455 kts
2026-05-05 10:04 20.36604 145.15478 37065 ft 456 kts
2026-05-05 10:04 20.42907 145.15894 37078 ft 455 kts
2026-05-05 10:05 20.49220 145.16309 37078 ft 454 kts
2026-05-05 10:05 20.55497 145.16723 37080 ft 455 kts
2026-05-05 10:06 20.61825 145.17140 37074 ft 456 kts
2026-05-05 10:06 20.68163 145.17559 37069 ft 455 kts
2026-05-05 10:07 20.74436 145.17974 37083 ft 453 kts
2026-05-05 10:07 20.80741 145.18390 37083 ft 454 kts
2026-05-05 10:08 20.87070 145.18810 37085 ft 455 kts
2026-05-05 10:08 20.93349 145.19225 37081 ft 454 kts
2026-05-05 10:09 20.99644 145.19558 37077 ft 451 kts 354°
2026-05-05 10:09 21.05812 145.18416 37061 ft 450 kts 348°
2026-05-05 10:10 21.11916 145.17186 37084 ft 451 kts 348°
2026-05-05 10:10 21.18085 145.15906 37084 ft 451 kts 347°
2026-05-05 10:11 21.24255 145.14621 37086 ft 452 kts 348°
2026-05-05 10:11 21.30423 145.13335 37085 ft 449 kts 347°
2026-05-05 10:12 21.36538 145.12058 37090 ft 450 kts 348°
2026-05-05 10:12 21.42707 145.10771 37089 ft 450 kts 347°
2026-05-05 10:13 21.48813 145.09494 37096 ft 449 kts 347°
2026-05-05 10:13 21.54941 145.08212 37090 ft 447 kts 347°
2026-05-05 10:14 21.61070 145.06929 37093 ft 450 kts 348°
2026-05-05 10:14 21.67193 145.05645 37095 ft 451 kts 347°
2026-05-05 10:15 21.73336 145.04357 37095 ft 448 kts 348°
2026-05-05 10:15 21.79466 145.03071 37091 ft 449 kts 348°
2026-05-05 10:16 21.85592 145.01783 37100 ft 451 kts 348°
2026-05-05 10:16 21.91759 145.00486 37100 ft 450 kts 348°
2026-05-05 10:17 21.97858 144.99203 37095 ft 450 kts 348°
2026-05-05 10:17 22.04001 144.97909 37097 ft 448 kts 348°
2026-05-05 10:18 22.10137 144.96615 37100 ft 450 kts 347°
2026-05-05 10:18 22.16253 144.95324 37110 ft 450 kts 347°
2026-05-05 10:19 22.22371 144.94032 37105 ft 448 kts 347°
2026-05-05 10:19 22.28511 144.92734 37109 ft 450 kts 347°
2026-05-05 10:20 22.34626 144.91440 37100 ft 449 kts 347°
2026-05-05 10:20 22.40758 144.90142 37102 ft 449 kts 347°
2026-05-05 10:21 22.46907 144.88838 37113 ft 450 kts 347°
2026-05-05 10:21 22.53061 144.87532 37103 ft 449 kts 347°
2026-05-05 10:22 22.59165 144.86236 37105 ft 449 kts 347°
2026-05-05 10:22 22.65319 144.84928 37114 ft 450 kts 347°
2026-05-05 10:23 22.71459 144.83622 37112 ft 451 kts 347°
2026-05-05 10:23 22.77633 144.82306 37118 ft 451 kts 347°
2026-05-05 10:24 22.83806 144.80991 37111 ft 451 kts 347°
2026-05-05 10:24 22.89936 144.79683 37115 ft 451 kts 347°
2026-05-05 10:25 22.96093 144.78369 37114 ft 451 kts 347°
2026-05-05 10:25 23.02261 144.77050 37120 ft 451 kts 347°
2026-05-05 10:26 23.08440 144.75728 37118 ft 452 kts 347°
2026-05-05 10:26 23.14583 144.74413 37118 ft 452 kts 347°
2026-05-05 10:27 23.20763 144.73088 37117 ft 453 kts 347°
2026-05-05 10:27 23.26959 144.71759 37124 ft 453 kts 347°
2026-05-05 10:28 23.33154 144.70429 37126 ft 454 kts 347°
2026-05-05 10:28 23.39323 144.69103 37129 ft 454 kts 347°
2026-05-05 10:29 23.45516 144.67770 37117 ft 454 kts 347°
2026-05-05 10:29 23.51721 144.66434 37136 ft 454 kts 347°
2026-05-05 10:30 23.57885 144.65105 37124 ft 453 kts 347°
2026-05-05 10:30 23.64092 144.63766 37125 ft 453 kts 347°
2026-05-05 10:31 23.70240 144.62438 37125 ft 453 kts 347°
2026-05-05 10:31 23.76434 144.61099 37127 ft 453 kts 347°
2026-05-05 10:32 23.82631 144.59758 37129 ft 453 kts 347°
2026-05-05 10:32 23.88791 144.58424 37126 ft 453 kts 347°
2026-05-05 10:33 23.94973 144.57083 37130 ft 453 kts 347°
2026-05-05 10:33 24.00137 144.55963 37133 ft 454 kts 347°
2026-05-05 10:34 24.07342 144.54398 37131 ft 454 kts 346°
2026-05-05 10:34 24.12506 144.53275 37134 ft 454 kts 346°
2026-05-05 10:35 24.18708 144.51925 37132 ft 454 kts 346°
2026-05-05 10:35 24.24926 144.50570 37135 ft 454 kts 346°
2026-05-05 10:36 24.31102 144.49224 37142 ft 455 kts 346°
2026-05-05 10:36 24.37325 144.47865 37140 ft 456 kts 346°
2026-05-05 10:37 24.43540 144.46507 37144 ft 456 kts 346°
2026-05-05 10:37 24.49761 144.45147 37149 ft 456 kts 346°
2026-05-05 10:38 24.55947 144.43792 37144 ft 455 kts 346°
2026-05-05 10:38 24.62182 144.42426 37144 ft 455 kts 346°
2026-05-05 10:39 24.68397 144.41063 37144 ft 456 kts 346°
2026-05-05 10:39 24.74627 144.39695 37151 ft 456 kts 346°
2026-05-05 10:40 24.80821 144.38333 37147 ft 456 kts 346°
2026-05-05 10:40 24.87066 144.36959 37149 ft 456 kts 346°
2026-05-05 10:41 24.93245 144.35599 37152 ft 456 kts 346°
2026-05-05 10:41 24.99479 144.34223 37159 ft 456 kts 345°
2026-05-05 10:42 25.08788 144.32127 37151 ft 456 kts 345°
2026-05-05 10:43 25.15021 144.30724 37152 ft 456 kts 345°
2026-05-05 10:43 25.21236 144.29324 37158 ft 456 kts 345°
2026-05-05 10:44 25.27428 144.27927 37159 ft 456 kts 345°
2026-05-05 10:44 25.33661 144.26520 37157 ft 457 kts 345°
2026-05-05 10:45 25.39890 144.25112 37157 ft 457 kts 345°
2026-05-05 10:45 25.46120 144.23703 37168 ft 457 kts 345°
2026-05-05 10:46 25.52353 144.22291 37162 ft 457 kts 345°
2026-05-05 10:46 25.58551 144.20885 37162 ft 457 kts 345°
2026-05-05 10:47 25.64791 144.19469 37163 ft 457 kts 345°
2026-05-05 10:47 25.71021 144.18053 37176 ft 457 kts 345°
2026-05-05 10:48 25.77222 144.16643 37165 ft 457 kts 345°
2026-05-05 10:48 25.83459 144.15223 37165 ft 457 kts 345°
2026-05-05 10:49 25.89695 144.13801 37166 ft 457 kts 345°
2026-05-05 10:49 25.95894 144.12386 37158 ft 459 kts 344°
2026-05-05 10:50 26.02190 144.10949 37170 ft 461 kts 344°
2026-05-05 10:50 26.08439 144.09519 37167 ft 461 kts 344°
2026-05-05 10:51 26.14722 144.08081 37168 ft 461 kts 344°
2026-05-05 10:51 26.21017 144.06638 37170 ft 461 kts 344°
2026-05-05 10:52 26.27311 144.05194 37174 ft 461 kts 344°
2026-05-05 10:52 26.33551 144.03761 37175 ft 461 kts 344°
2026-05-05 10:53 26.39831 144.02317 37188 ft 461 kts 344°
2026-05-05 10:53 26.46120 144.00869 37181 ft 461 kts 344°
2026-05-05 10:54 26.52371 143.99428 37179 ft 461 kts 344°
2026-05-05 10:54 26.58660 143.97977 37183 ft 460 kts 344°
2026-05-05 10:55 26.64934 143.96528 37199 ft 460 kts 344°
2026-05-05 10:55 26.71173 143.95085 37190 ft 460 kts 344°
2026-05-05 10:56 26.77454 143.93631 37188 ft 460 kts 344°
2026-05-05 10:56 26.83738 143.92175 37193 ft 460 kts 344°
2026-05-05 10:57 26.89957 143.90732 37195 ft 460 kts 343°
2026-05-05 10:57 26.96241 143.89272 37188 ft 460 kts 343°
2026-05-05 10:58 27.02513 143.87813 37201 ft 460 kts 343°
2026-05-05 10:58 27.08752 143.86361 37204 ft 460 kts 343°
2026-05-05 10:59 27.15021 143.84900 37196 ft 460 kts 343°
2026-05-05 10:59 27.21260 143.83444 37200 ft 460 kts 343°
2026-05-05 11:00 27.27540 143.81976 37202 ft 460 kts 343°
2026-05-05 11:00 27.33817 143.80508 37221 ft 460 kts 343°
2026-05-05 11:01 27.40049 143.79049 37213 ft 460 kts 343°
2026-05-05 11:01 27.46326 143.77578 37210 ft 460 kts 343°
2026-05-05 11:02 27.52608 143.76103 37210 ft 460 kts 343°
2026-05-05 11:02 27.58891 143.74627 37214 ft 460 kts 342°
2026-05-05 11:03 27.65118 143.73162 37213 ft 461 kts 342°
2026-05-05 11:03 27.71410 143.71680 37219 ft 461 kts 342°
2026-05-05 11:04 27.77665 143.70205 37232 ft 461 kts 342°
2026-05-05 11:04 27.83960 143.68719 37219 ft 461 kts 342°
2026-05-05 11:05 27.90231 143.67237 37219 ft 461 kts 342°
2026-05-05 11:05 27.96478 143.65759 37222 ft 461 kts 342°
2026-05-05 11:06 28.02754 143.64272 37230 ft 460 kts 341°
2026-05-05 11:06 28.09024 143.62784 37228 ft 459 kts 341°
2026-05-05 11:07 28.15237 143.61309 37230 ft 459 kts 341°
2026-05-05 11:07 28.21497 143.59821 37231 ft 459 kts 341°
2026-05-05 11:08 28.27753 143.58331 37230 ft 458 kts 341°
2026-05-05 11:08 28.33953 143.56854 37234 ft 458 kts 341°
2026-05-05 11:09 28.40193 143.55365 37235 ft 458 kts 341°
2026-05-05 11:09 28.46401 143.53882 37235 ft 458 kts 341°
2026-05-05 11:10 28.52655 143.52386 37238 ft 458 kts 341°
2026-05-05 11:10 28.58901 143.50890 37238 ft 458 kts 341°
2026-05-05 11:11 28.65094 143.49405 37233 ft 458 kts 341°
2026-05-05 11:11 28.71342 143.47905 37241 ft 458 kts 341°
2026-05-05 11:12 28.77574 143.46407 37247 ft 458 kts 341°
2026-05-05 11:12 28.83803 143.44908 37246 ft 458 kts 341°
2026-05-05 11:13 28.90051 143.43402 37256 ft 458 kts 340°
2026-05-05 11:13 28.96258 143.41905 37243 ft 457 kts 340°
2026-05-05 11:14 29.02504 143.40397 37251 ft 458 kts 340°
2026-05-05 11:14 29.08694 143.38899 37254 ft 458 kts 340°
2026-05-05 11:15 29.14932 143.37389 37254 ft 457 kts 340°
2026-05-05 11:15 29.21170 143.35877 37253 ft 458 kts 340°
2026-05-05 11:16 29.27367 143.34372 37256 ft 458 kts 340°
2026-05-05 11:16 29.33593 143.32859 37266 ft 458 kts 340°
2026-05-05 11:17 29.39802 143.31348 37252 ft 457 kts 340°
2026-05-05 11:17 29.46039 143.29829 37260 ft 457 kts 340°
2026-05-05 11:18 29.52280 143.28306 37258 ft 457 kts 340°
2026-05-05 11:18 29.58455 143.26798 37258 ft 456 kts 340°
2026-05-05 11:19 29.64667 143.25279 37263 ft 456 kts 340°
2026-05-05 11:19 29.70891 143.23756 37263 ft 456 kts 340°
2026-05-05 11:20 29.77069 143.22241 37272 ft 456 kts 340°
2026-05-05 11:20 29.83270 143.20719 37264 ft 455 kts 340°
2026-05-05 11:21 29.89479 143.19193 37266 ft 456 kts 340°
2026-05-05 11:21 29.95650 143.17675 37266 ft 456 kts 340°
2026-05-05 11:22 30.01900 143.16244 37270 ft 459 kts 342°
2026-05-05 11:22 30.08198 143.14963 37268 ft 459 kts 341°
2026-05-05 11:23 30.13431 143.13885 37271 ft 459 kts 341°
2026-05-05 11:23 30.19725 143.12585 37282 ft 459 kts 341°
2026-05-05 11:24 30.26039 143.11279 37279 ft 460 kts 341°
2026-05-05 11:24 30.32288 143.09985 37274 ft 460 kts 341°
2026-05-05 11:25 30.38604 143.08675 37286 ft 460 kts 341°
2026-05-05 11:25 30.44906 143.07366 37270 ft 459 kts 341°
2026-05-05 11:26 30.51163 143.06065 37271 ft 459 kts 341°
2026-05-05 11:26 30.57454 143.04756 37276 ft 459 kts 341°
2026-05-05 11:27 30.63704 143.03453 37278 ft 459 kts 341°
2026-05-05 11:27 30.70008 143.02137 37276 ft 459 kts 341°
2026-05-05 11:28 30.76318 143.00818 37273 ft 459 kts 341°
2026-05-05 11:28 30.82568 142.99510 37299 ft 460 kts 341°
2026-05-05 11:29 30.88868 142.98189 37280 ft 459 kts 341°
2026-05-05 11:29 30.95132 142.96875 37278 ft 459 kts 341°
2026-05-05 11:30 31.01428 142.95552 37279 ft 459 kts 341°
2026-05-05 11:30 31.07705 142.94231 37274 ft 457 kts 340°
2026-05-05 11:31 31.13960 142.92913 37280 ft 457 kts 340°
2026-05-05 11:31 31.20185 142.91600 37279 ft 457 kts 340°
2026-05-05 11:32 31.26440 142.90278 37294 ft 454 kts 340°
2026-05-05 11:32 31.32633 142.88968 37282 ft 452 kts 340°
2026-05-05 11:33 31.38801 142.87661 37284 ft 453 kts 340°
2026-05-05 11:33 31.45009 142.86344 37327 ft 452 kts 340°
2026-05-05 11:34 31.51170 142.85036 37288 ft 447 kts 339°
2026-05-05 11:34 31.57261 142.83741 37288 ft 448 kts 339°
2026-05-05 11:35 31.63403 142.82433 37287 ft 448 kts 339°
2026-05-05 11:35 31.69522 142.81128 37275 ft 445 kts 339°
2026-05-05 11:36 31.75618 142.79826 37294 ft 445 kts 339°
2026-05-05 11:36 31.81660 142.78534 37297 ft 445 kts 339°
2026-05-05 11:37 31.87763 142.77227 37303 ft 445 kts 339°
2026-05-05 11:37 31.93860 142.75920 37290 ft 445 kts 339°
2026-05-05 11:38 31.99929 142.74618 37296 ft 445 kts 339°
2026-05-05 11:38 32.06032 142.73305 37326 ft 445 kts 339°
2026-05-05 11:39 32.12135 142.71992 37292 ft 445 kts 339°
2026-05-05 11:39 32.18198 142.70684 37298 ft 445 kts 339°
2026-05-05 11:40 32.24304 142.69367 37300 ft 445 kts 339°
2026-05-05 11:40 32.30408 142.68047 37303 ft 446 kts 339°
2026-05-05 11:41 32.36490 142.66731 37299 ft 446 kts 339°
2026-05-05 11:41 32.42608 142.65405 37301 ft 447 kts 339°
2026-05-05 11:42 32.48742 142.64074 37310 ft 448 kts 339°
2026-05-05 11:42 32.54850 142.62746 37315 ft 449 kts 340°
2026-05-05 11:43 32.61019 142.61403 37304 ft 449 kts 340°
2026-05-05 11:43 32.67139 142.60069 37305 ft 449 kts 340°
2026-05-05 11:44 32.73294 142.58726 37304 ft 449 kts 340°
2026-05-05 11:44 32.79412 142.57389 37306 ft 449 kts 340°
2026-05-05 11:45 32.85571 142.56041 37310 ft 449 kts 339°
2026-05-05 11:45 32.91762 142.54684 37311 ft 454 kts 339°
2026-05-05 11:46 32.97988 142.53318 37312 ft 454 kts 339°
2026-05-05 11:46 33.04171 142.51960 37313 ft 454 kts 340°
2026-05-05 11:47 33.10424 142.50582 37307 ft 461 kts 338°
2026-05-05 11:47 33.16783 142.49180 37310 ft 464 kts 338°
2026-05-05 11:48 33.26278 142.47084 37345 ft 464 kts 337°
2026-05-05 11:48 33.32654 142.45672 37315 ft 465 kts 337°
2026-05-05 11:49 33.38993 142.44268 37315 ft 466 kts 337°
2026-05-05 11:49 33.45379 142.42851 37336 ft 466 kts 336°
2026-05-05 11:50 33.51731 142.41440 37322 ft 465 kts 336°
2026-05-05 11:50 33.58064 142.40031 37323 ft 465 kts 336°
2026-05-05 11:51 33.64436 142.38611 37366 ft 465 kts 336°
2026-05-05 11:51 33.70785 142.37193 37320 ft 462 kts 336°
2026-05-05 11:52 33.77066 142.35790 37321 ft 463 kts 336°
2026-05-05 11:52 33.83487 142.34589 37356 ft 471 kts 340°
2026-05-05 11:53 33.89687 142.33746 37317 ft 469 kts 339°
2026-05-05 11:53 33.96176 142.32825 37329 ft 469 kts 339°
2026-05-05 11:54 34.02620 142.31901 37332 ft 469 kts 339°
2026-05-05 11:54 34.09111 142.30994 37314 ft 468 kts 339°
2026-05-05 11:55 34.15593 142.30103 37329 ft 468 kts 339°
2026-05-05 11:55 34.22036 142.29215 37330 ft 468 kts 339°
2026-05-05 11:56 34.28503 142.28323 37332 ft 467 kts 339°
2026-05-05 11:56 34.34984 142.27426 37332 ft 467 kts 339°
2026-05-05 11:57 34.41417 142.26535 37330 ft 468 kts 339°
2026-05-05 11:57 34.47882 142.25639 37331 ft 466 kts 339°
2026-05-05 11:58 34.54306 142.24746 37332 ft 466 kts 339°
2026-05-05 11:58 34.60751 142.23849 37330 ft 466 kts 339°
2026-05-05 11:59 34.67096 142.22774 37303 ft 446 kts 328°
2026-05-05 11:59 34.69828 142.21323 37339 ft 417 kts 315°
2026-05-05 11:59 34.72347 142.19534 37311 ft 419 kts 315°
2026-05-05 12:00 34.77261 142.15813 37340 ft 416 kts 314°
2026-05-05 12:00 34.82066 142.12025 37361 ft 411 kts 313°
2026-05-05 12:01 34.86828 142.08219 37336 ft 409 kts 313°
2026-05-05 12:01 34.91588 142.04403 37317 ft 409 kts 313°
2026-05-05 12:02 34.95986 142.00300 37347 ft 382 kts 297°
2026-05-05 12:02 34.97387 141.97673 36728 ft 360 kts 284°
2026-05-05 12:02 34.98243 141.94854 36192 ft 350 kts 280°
2026-05-05 12:03 34.98980 141.92057 35782 ft 342 kts 278°
2026-05-05 12:03 34.99623 141.89290 35381 ft 339 kts 277°
2026-05-05 12:03 35.00223 141.86456 34937 ft 350 kts 276°
2026-05-05 12:03 35.00802 141.83590 34330 ft 353 kts 276°
2026-05-05 12:04 35.01375 141.80672 33517 ft 354 kts 276°
2026-05-05 12:04 35.02081 141.77766 32696 ft 366 kts 285°
2026-05-05 12:04 35.03461 141.75056 31885 ft 387 kts 299°
2026-05-05 12:04 35.05509 141.72807 31231 ft 410 kts 314°
2026-05-05 12:05 35.08033 141.71127 30565 ft 422 kts 320°
2026-05-05 12:05 35.10692 141.69480 29627 ft 424 kts 321°
2026-05-05 12:05 35.13307 141.67880 28920 ft 429 kts 322°
2026-05-05 12:05 35.15999 141.66251 28319 ft 433 kts 322°
2026-05-05 12:06 35.18712 141.64618 27705 ft 434 kts 323°
2026-05-05 12:06 35.21421 141.62988 27126 ft 432 kts 323°
2026-05-05 12:06 35.24112 141.61367 26473 ft 427 kts 324°
2026-05-05 12:06 35.26754 141.59773 25871 ft 423 kts 324°
2026-05-05 12:07 35.29353 141.58204 25282 ft 420 kts 325°
2026-05-05 12:07 35.31966 141.56625 24690 ft 417 kts 326°
2026-05-05 12:07 35.34565 141.55054 24094 ft 415 kts 326°
2026-05-05 12:07 35.37150 141.53490 23430 ft 414 kts 327°
2026-05-05 12:08 35.39728 141.51928 22785 ft 411 kts 328°
2026-05-05 12:08 35.42283 141.50380 22187 ft 407 kts 328°
2026-05-05 12:08 35.44810 141.48848 21611 ft 404 kts 329°
2026-05-05 12:08 35.47323 141.47323 21037 ft 401 kts 329°
2026-05-05 12:09 35.49780 141.45832 20477 ft 399 kts 330°
2026-05-05 12:09 35.52221 141.44242 19865 ft 395 kts 323°
2026-05-05 12:09 35.54225 141.41957 19205 ft 391 kts 306°
2026-05-05 12:09 35.55625 141.39120 18677 ft 387 kts 297°
2026-05-05 12:10 35.56867 141.36197 18068 ft 386 kts 296°
2026-05-05 12:10 35.58063 141.33255 17493 ft 383 kts 295°
2026-05-05 12:10 35.59230 141.30323 16954 ft 380 kts 295°
2026-05-05 12:10 35.60361 141.27440 16436 ft 377 kts 294°
2026-05-05 12:11 35.61489 141.24540 15924 ft 375 kts 295°
2026-05-05 12:11 35.62605 141.21652 15416 ft 373 kts 294°
2026-05-05 12:11 35.63709 141.18794 14928 ft 370 kts 294°
2026-05-05 12:11 35.64808 141.15942 14457 ft 367 kts 294°
2026-05-05 12:12 35.66135 141.13311 13872 ft 369 kts 309°
2026-05-05 12:12 35.68018 141.11151 13324 ft 368 kts 316°
2026-05-05 12:12 35.69919 141.09062 12840 ft 365 kts 316°
2026-05-05 12:12 35.71821 141.06987 12249 ft 365 kts 316°
2026-05-05 12:13 35.73088 141.05612 11866 ft 365 kts 316°
2026-05-05 12:13 35.74979 141.03561 11514 ft 358 kts 316°
2026-05-05 12:13 35.77050 141.00552 11252 ft 339 kts 298°
2026-05-05 12:13 35.78222 140.98083 11112 ft 328 kts 298°
2026-05-05 12:14 35.78986 140.96478 10986 ft 319 kts 298°
2026-05-05 12:14 35.80074 140.94172 10836 ft 304 kts 298°
2026-05-05 12:14 35.81099 140.91988 10684 ft 291 kts 297°
2026-05-05 12:14 35.82087 140.89875 10551 ft 278 kts 297°
2026-05-05 12:15 35.83033 140.87848 10420 ft 268 kts 297°
2026-05-05 12:15 35.83950 140.85883 10274 ft 260 kts 297°
2026-05-05 12:15 35.84842 140.83968 10151 ft 258 kts 298°
2026-05-05 12:15 35.85752 140.82010 9947 ft 267 kts 298°
2026-05-05 12:16 35.86687 140.80004 9645 ft 271 kts 298°
2026-05-05 12:16 35.87626 140.77984 9348 ft 271 kts 298°
2026-05-05 12:16 35.88561 140.75974 9056 ft 269 kts 297°
2026-05-05 12:16 35.89478 140.74000 8768 ft 267 kts 297°
2026-05-05 12:17 35.90397 140.72021 8476 ft 264 kts 297°
2026-05-05 12:17 35.91301 140.70072 8192 ft 261 kts 297°
2026-05-05 12:17 35.92202 140.68132 7921 ft 259 kts 298°
2026-05-05 12:17 35.93094 140.66208 7638 ft 257 kts 298°
2026-05-05 12:18 35.93967 140.64322 7371 ft 255 kts 298°
2026-05-05 12:18 35.94845 140.62427 7093 ft 253 kts 298°
2026-05-05 12:18 35.95717 140.60542 6826 ft 252 kts 298°
2026-05-05 12:18 35.96585 140.58665 6542 ft 250 kts 298°
2026-05-05 12:19 35.97446 140.56803 6251 ft 249 kts 297°
2026-05-05 12:19 35.98276 140.54931 6011 ft 248 kts 290°
2026-05-05 12:19 35.98759 140.52909 5712 ft 250 kts 282°
2026-05-05 12:19 35.99181 140.50824 5424 ft 249 kts 282°
2026-05-05 12:20 35.99603 140.48747 5141 ft 248 kts 282°
2026-05-05 12:20 36.00023 140.46688 4878 ft 246 kts 282°
2026-05-05 12:20 36.00435 140.44669 4625 ft 238 kts 281°
2026-05-05 12:20 36.00833 140.42716 4433 ft 229 kts 281°
2026-05-05 12:21 36.01211 140.40863 4261 ft 223 kts 281°
2026-05-05 12:21 36.01582 140.39035 4117 ft 215 kts 280°
2026-05-05 12:21 36.01943 140.37258 3914 ft 211 kts 280°
2026-05-05 12:21 36.02297 140.35513 3725 ft 207 kts 279°
2026-05-05 12:22 36.02643 140.33811 3550 ft 202 kts 279°
2026-05-05 12:22 36.02981 140.32145 3363 ft 198 kts 279°
2026-05-05 12:22 36.03312 140.30513 3166 ft 194 kts 278°
2026-05-05 12:22 36.03606 140.28916 3062 ft 186 kts 271°
2026-05-05 12:23 36.03639 140.27390 3047 ft 172 kts 264°
2026-05-05 12:23 36.03567 140.25931 2989 ft 167 kts 248°
2026-05-05 12:23 36.02954 140.24799 2961 ft 158 kts 214°
2026-05-05 12:23 36.01957 140.24269 3034 ft 157 kts 189°
2026-05-05 12:24 36.00858 140.24167 3061 ft 159 kts 183°
2026-05-05 12:24 35.99774 140.24295 3025 ft 160 kts 166°
2026-05-05 12:24 35.98738 140.24805 3022 ft 161 kts 158°
2026-05-05 12:24 35.97731 140.25431 3030 ft 162 kts 156°
2026-05-05 12:25 35.96740 140.26094 3037 ft 162 kts 155°
2026-05-05 12:25 35.95753 140.26782 3026 ft 162 kts 154°
2026-05-05 12:25 35.94776 140.27478 3023 ft 162 kts 154°
2026-05-05 12:25 35.93802 140.28178 3015 ft 162 kts 154°
2026-05-05 12:26 35.92822 140.28886 2835 ft 162 kts 153°
2026-05-05 12:26 35.91891 140.29561 2663 ft 152 kts 153°
2026-05-05 12:26 35.91027 140.30188 2497 ft 138 kts 153°
2026-05-05 12:26 35.90209 140.30781 2343 ft 135 kts 153°
2026-05-05 12:27 35.89403 140.31366 2155 ft 133 kts 153°
2026-05-05 12:27 35.88612 140.31941 1982 ft 131 kts 153°
2026-05-05 12:27 35.87837 140.32503 1803 ft 131 kts 153°
2026-05-05 12:27 35.87038 140.33083 1623 ft 131 kts 153°
2026-05-05 12:28 35.86262 140.33648 1442 ft 132 kts 153°
2026-05-05 12:28 35.85469 140.34220 1264 ft 132 kts 154°
2026-05-05 12:28 35.84685 140.34788 1089 ft 130 kts 153°
2026-05-05 12:28 35.83899 140.35369 940 ft 133 kts 152°
2026-05-05 12:29 35.83087 140.35967 770 ft 140 kts 151°
2026-05-05 12:29 35.82237 140.36576 543 ft 143 kts 153°
2026-05-05 12:29 35.81363 140.37188 386 ft 144 kts 148°
2026-05-05 12:29 35.80506 140.37826 213 ft 143 kts 150°
2026-05-05 12:30 35.79703 140.38402 146 ft 119 kts 150°
2026-05-05 12:30 35.79176 140.38782 147 ft 54 kts 150°
2026-05-05 12:30 35.78894 140.38933 144 ft 41 kts 169°
2026-05-05 12:30 35.78675 140.38958 146 ft 25 kts 175°
2026-05-05 12:31 35.78547 140.39001 146 ft 18 kts 136°
2026-05-05 12:31 35.78448 140.39112 146 ft 20 kts 154°
2026-05-05 12:31 35.78306 140.39161 146 ft 22 kts 166°
2026-05-05 12:31 35.78162 140.39195 146 ft 14 kts 187°
2026-05-05 12:32 35.78112 140.39137 146 ft 11 kts 230°
2026-05-05 12:32 35.78037 140.39127 146 ft 13 kts 153°
2026-05-05 12:32 35.77963 140.39203 146 ft 15 kts 120°
2026-05-05 12:32 35.77914 140.39329 146 ft 18 kts 115°
2026-05-05 12:33 35.77851 140.39468 146 ft 20 kts 131°
2026-05-05 12:33 35.77730 140.39567 146 ft 22 kts 150°
2026-05-05 12:33 35.77592 140.39665 146 ft 23 kts 157°
2026-05-05 12:33 35.77483 140.39743 146 ft 16 kts 148°
2026-05-05 12:34 35.77396 140.39705 146 ft 16 kts 244°
2026-05-05 12:34 35.77369 140.39574 146 ft 14 kts 227°
2026-05-05 12:34 35.77280 140.39519 146 ft 16 kts 203°
2026-05-05 12:34 35.77174 140.39460 146 ft 18 kts 204°
2026-05-05 12:35 35.77052 140.39393 146 ft 20 kts 204°
2026-05-05 12:35 35.76953 140.39389 146 ft 13 kts 152°
2026-05-05 12:35 35.76867 140.39403 146 ft 12 kts 205°
2026-05-05 12:35 35.76818 140.39370 146 ft 4 kts 216°
2026-05-05 12:36 35.76815 140.39340 146 ft 4 kts 303°
2026-05-05 12:36 35.76833 140.39299 146 ft 7 kts 294°
2026-05-05 12:36 35.76847 140.39260 146 ft 3 kts 294°
2026-05-05 12:36 35.76849 140.39255 146 ft 0 kts 294°